EW0680 Weather Reports


time (UTC)temp
C
wind
direction
speed
KPH
gust
KPH
rain 1hr
cm
rain 24hr
cm
rain mn
cm
humidity
%
barometer
mb
20260509161506 18 266 1.6 8.0 0.00 0.97 0.53 76 1007.3
20260509160017 18 288 0.0 8.0 0.00 0.97 0.53 79 1007.3
20260509154520 17 271 3.2 9.7 0.00 0.97 0.53 76 1007.4
20260509153006 17 84 1.6 8.0 0.00 0.97 0.53 79 1007.4
20260509151510 17 284 0.0 0.0 0.00 0.97 0.53 79 1007.3
20260509150016 17 150 0.0 0.0 0.00 0.97 0.53 81 1007.2
20260509144521 16 224 0.0 0.0 0.00 0.97 0.53 84 1007.3
20260509143022 16 265 0.0 0.0 0.00 0.97 0.53 85 1007.2
20260509141530 15 57 0.0 0.0 0.00 0.97 0.53 87 1007.1
20260509140034 15 302 0.0 1.6 0.00 0.97 0.53 87 1006.9
20260509134538 15 259 0.0 0.0 0.00 0.97 0.53 89 1007.1
20260509133033 14 300 0.0 0.0 0.00 0.97 0.53 89 1007.2
20260509131555 13 279 0.0 0.0 0.00 0.97 0.53 90 1007.2
20260509130048 13 292 0.0 3.2 0.00 0.97 0.53 91 1007.1
20260509124545 13 302 0.0 3.2 0.00 0.97 0.53 91 1007.2
20260509123048 12 298 0.0 0.0 0.00 0.97 0.53 91 1007.2
20260509121547 12 286 0.0 0.0 0.00 0.97 0.53 91 1007.2
20260509120105 12 286 0.0 0.0 0.00 0.97 0.53 91 1007.0
20260509114503 11 288 0.0 0.0 0.00 0.97 0.53 91 1007.1
20260509113013 11 286 0.0 0.0 0.03 0.97 0.53 91 1007.2
20260509111517 11 286 0.0 0.0 0.03 0.97 0.53 91 1007.1
20260509110024 11 300 0.0 3.2 0.03 0.97 0.53 91 1007.0
20260509104521 11 303 1.6 8.0 0.03 0.97 0.53 91 1006.8
20260509103029 11 236 0.0 4.8 0.00 0.94 0.51 91 1005.9
20260509101526 11 265 1.6 6.4 0.00 0.94 0.51 91 1006.7
20260509100035 11 341 0.0 4.8 0.00 0.94 0.51 91 1006.9
20260509094529 11 252 0.0 8.0 0.00 0.94 0.51 91 1006.9
20260509093033 11 293 0.0 0.0 0.03 0.94 0.51 91 1006.9
20260509091540 11 293 0.0 0.0 0.03 0.94 0.51 91 1007.0
20260509090048 11 292 0.0 0.0 0.05 0.94 0.51 91 1007.2
20260509084546 11 292 0.0 9.7 0.10 0.94 0.51 91 1007.0
20260509083029 11 335 1.6 6.4 0.08 0.91 0.51 91 1007.1
20260509081540 11 306 0.0 6.4 0.10 0.91 0.48 91 1007.3
20260509080030 11 285 3.2 6.4 0.08 0.89 0.46 91 1007.5
20260509074534 11 300 0.0 6.4 0.05 0.84 0.41 91 1007.5
20260509073034 11 289 1.6 6.4 0.13 0.84 0.41 91 1007.7
20260509071536 11 298 0.0 6.4 0.13 0.81 0.38 91 1007.8
20260509070033 11 302 0.0 0.0 0.15 0.81 0.38 91 1007.8
20260509064535 11 282 1.6 6.4 0.13 0.79 0.36 91 1008.2
20260509063038 11 292 0.0 0.0 0.08 0.71 0.28 91 1008.4
20260509061538 11 283 0.0 3.2 0.10 0.69 0.25 91 1008.4
20260509060044 12 298 0.0 0.0 0.10 0.66 0.23 91 1008.2
20260509054601 12 298 0.0 0.0 0.13 0.66 0.23 91 1008.5
20260509053137 12 298 0.0 0.0 0.13 0.64 0.20 91 1008.5
20260509051548 12 287 0.0 6.4 0.10 0.58 0.18 91 1008.7
20260509050050 12 285 1.6 6.4 0.13 0.56 0.13 91 1009.1
20260509044551 12 312 3.2 9.7 0.15 0.53 0.10 91 1009.2
20260509043047 12 292 3.2 6.4 0.18 0.51 0.08 91 1009.2
20260509041551 12 295 3.2 6.4 0.18 0.48 0.05 91 1009.2
20260509040108 12 290 4.8 11.3 0.15 0.43 0.00 91 1009.4
20260509034602 12 310 3.2 9.7 0.15 0.38 0.38 91 1009.4
20260509033030 12 324 1.6 6.4 0.18 0.33 0.33 91 1009.6
20260509031532 12 290 0.0 3.2 0.18 0.30 0.30 91 1009.7
20260509030039 12 296 0.0 0.0 0.15 0.28 0.28 91 1009.8
20260509024545 12 297 0.0 4.8 0.13 0.23 0.23 91 1010.1
20260509023049 12 297 0.0 3.2 0.08 0.15 0.15 90 1010.1
20260509021527 12 292 1.6 4.8 0.05 0.13 0.13 90 1009.9
20260509020027 12 287 0.0 4.8 0.05 0.13 0.13 90 1009.8
20260509014538 12 279 0.0 0.0 0.05 0.10 0.10 90 1009.7
20260509013059 12 315 0.0 0.0 0.03 0.08 0.08 90 1009.6
20260509011533 12 315 0.0 0.0 0.03 0.08 0.08 89 1009.4
20260509010041 12 315 0.0 0.0 0.03 0.08 0.08 89 1009.2
20260509004549 12 315 0.0 0.0 0.05 0.05 0.05 89 1009.5
20260509003113 12 315 0.0 0.0 0.05 0.05 0.05 88 1009.2
20260509001606 12 315 1.6 3.2 0.05 0.05 0.05 88 1009.4
20260509000011 13 341 0.0 1.6 0.05 0.05 0.05 87 1009.5
20260508234510 13 340 1.6 8.0 0.00 0.00 0.00 84 1009.7
20260508233013 14 311 4.8 8.0 0.00 0.00 0.00 79 1009.6
20260508231519 15 310 0.0 0.0 0.00 0.00 0.00 73 1009.6
20260508230031 15 294 0.0 0.0 0.00 0.00 0.00 68 1009.1
20260508224510 16 294 0.0 0.0 0.00 0.00 0.00 65 1008.9
20260508223020 16 294 0.0 0.0 0.00 0.00 0.00 65 1008.8
20260508221521 16 294 0.0 0.0 0.00 0.00 0.00 66 1008.7
20260508220030 16 294 0.0 0.0 0.00 0.00 0.00 65 1008.8
20260508214536 16 294 0.0 0.0 0.00 0.00 0.00 64 1008.7
20260508213039 16 294 0.0 0.0 0.00 0.00 0.00 62 1008.8
20260508211528 16 294 0.0 0.0 0.00 0.00 0.00 62 1009.0
20260508210031 16 294 0.0 0.0 0.00 0.00 0.00 62 1009.3
20260508204529 17 295 0.0 0.0 0.00 0.00 0.00 60 1009.5
20260508203046 17 292 0.0 0.0 0.00 0.00 0.00 62 1009.7
20260508201552 17 296 0.0 0.0 0.00 0.00 0.00 61 1009.7
20260508194558 17 273 0.0 0.0 0.00 0.00 0.00 58 1010.0
20260508193108 17 225 0.0 0.0 0.00 0.00 0.00 56 1010.3
20260508191506 18 314 0.0 0.0 0.00 0.00 0.00 55 1010.3
20260508190030 18 257 0.0 0.0 0.00 0.00 0.00 60 1010.4
20260508184611 17 279 0.0 0.0 0.00 0.00 0.00 55 1010.6
20260508184502 17 296 0.0 0.0 0.00 0.00 0.00 55 1010.6
20260508183006 18 300 0.0 0.0 0.00 0.00 0.00 54 1010.7
20260508181508 17 20 0.0 0.0 0.00 0.00 0.00 58 1010.8
20260508180012 17 314 0.0 0.0 0.00 0.00 0.00 59 1011.1
20260508174530 17 350 0.0 0.0 0.00 0.00 0.00 58 1011.3
20260508173018 17 330 0.0 0.0 0.00 0.00 0.00 56 1011.7
20260508171525 18 292 0.0 0.0 0.00 0.00 0.00 57 1011.8
20260508170032 18 58 0.0 0.0 0.00 0.00 0.00 60 1012.0
20260508164526 18 313 0.0 0.0 0.00 0.00 0.00 56 1012.3
20260508163046 18 242 0.0 0.0 0.00 0.00 0.00 58 1012.5